SCP
0 0 0 0 0 0 0 0 0 0 0 0 0 0 0 0 0 0 0 0 0 0
0 0 0 0 0 0 0 0 0 0 0 0 0 0 0 0 0 0 0 0 0 0
0 0 0 0 0 0 0 0 0 0 0 0 0 0 0 0 0 0 0 0 0 0
0 0 0 0 0 0 0 0 0 0 0 0 0 0 0 0 0 0 0 0 0 0
0 0 0 0 0 0 0 0 0 0 0 0 0 0 0 0 0 0 0 0 0 0
0 0 0 0 0 0 0 0 0 0 0 0 0 0 0 0 0 0 0 0 0 0
0 0 0 0 0 0 0 0 0 0 0 0 0 0 0 0 0 0 0 0 0 0
0 0 0 0 0 0 0 0 0 0 0 0 0 0 0 0 0 0 0 0 0 0
0 0 0 0 0 0 0 0 0 0 0 0 0 0 0 0 0 0 0 0 0 0
0 0 0 0 0 0 0 0 0 0 0 0 0 0 0 0 0 0 0 0 0 0
0 0 0 0 0 0 0 0 0 0 0 0 0 0 0 0 0 0 0 0 0 0
0 0 0 0 0 0 0 0 0 0 0 0 0 0 0 0 0 0 0 0 0 0
0 0 0 0 0 0 0 0 0 0 0 0 0 0 0 0 0 0 0 0 0 0
0 0 0 0 0 0 0 0 0 0 0 0 0 0 0 0 0 0 0 0 0 0
Wind_Speed_500mb
39 45 46 45 42 40 40 40 41 43 41 41 44 46 47 48 48 49 50 53 53 49
39 44 49 51 49 49 47 47 49 51 50 49 49 49 50 50 51 51 52 52 52 47
34 37 41 46 51 53 57 58 57 59 59 56 56 54 53 52 51 53 51 51 49 48
42 44 44 45 45 48 52 56 62 64 65 65 64 60 56 54 53 54 53 49 48 48
53 53 55 54 51 51 54 53 54 59 68 71 69 67 63 57 56 54 55 50 49 49
53 54 56 58 58 57 57 59 60 62 63 68 71 70 67 62 57 56 55 51 50 50
55 56 56 56 57 62 64 65 64 66 70 69 69 72 71 66 61 57 57 53 49 50
58 61 60 60 60 63 63 65 66 66 69 74 72 71 73 69 62 59 57 52 46 50
59 61 63 64 66 69 68 65 66 67 68 73 76 71 70 69 64 60 58 51 44 46
66 65 62 63 67 70 69 66 68 68 66 70 76 69 67 68 66 61 57 49 45 44
71 72 70 69 70 69 69 69 68 70 68 67 72 68 62 66 66 62 55 47 44 44
77 78 79 77 78 79 73 71 68 69 70 69 68 66 60 64 65 61 53 46 42 41
80 82 84 84 82 83 78 73 69 69 69 66 63 58 56 61 63 61 52 45 41 38
83 82 85 87 84 85 81 69 68 68 66 60 55 48 51 58 61 57 50 46 38 34
Wind_Direction_500mb
280 289 295 298 302 304 300 295 290 289 294 298 301 303 305 307 309 311 312 312 311 307
291 292 292 290 290 292 294 290 287 284 285 288 291 295 299 301 305 307 309 309 307 301
317 312 306 299 295 290 287 287 286 284 282 282 284 287 291 295 299 303 303 304 303 300
308 307 306 306 306 303 295 291 285 283 282 281 280 281 284 289 294 298 300 299 298 299
309 302 298 299 302 304 304 303 300 289 282 279 278 279 281 285 289 293 296 294 291 292
312 313 305 295 293 296 300 302 301 299 292 283 278 275 277 279 282 286 290 287 286 289
308 309 310 308 304 297 294 297 298 296 291 288 280 274 273 275 277 281 285 283 284 286
308 306 306 308 305 306 299 294 292 293 290 285 279 272 269 270 272 276 280 280 283 291
308 308 306 303 304 304 304 299 295 293 292 286 279 272 266 266 268 272 277 278 283 291
318 313 308 302 298 300 303 300 297 296 294 287 280 271 263 262 264 267 272 271 284 288
319 316 313 308 304 300 300 296 296 297 297 287 278 268 259 257 259 263 267 266 282 287
318 314 313 309 305 303 299 292 293 294 295 289 274 264 254 250 256 260 262 262 278 283
314 311 309 306 302 298 295 288 288 289 292 287 274 263 245 246 253 257 256 259 274 280
309 308 308 303 299 297 290 284 282 285 288 281 268 253 240 246 251 255 253 257 270 277
Wind_Speed_850mb
39 45 46 45 42 40 40 40 41 43 41 41 44 46 47 48 48 49 50 53 53 49
39 44 49 51 49 49 47 47 49 51 50 49 49 49 50 50 51 51 52 52 52 47
34 37 41 46 51 53 57 58 57 59 59 56 56 54 53 52 51 53 51 51 49 48
42 44 44 45 45 48 52 56 62 64 65 65 64 60 56 54 53 54 53 49 48 48
53 53 55 54 51 51 54 53 54 59 68 71 69 67 63 57 56 54 55 50 49 49
53 54 56 58 58 57 57 59 60 62 63 68 71 70 67 62 57 56 55 51 50 50
55 56 56 56 57 62 64 65 64 66 70 69 69 72 71 66 61 57 57 53 49 50
58 61 60 60 60 63 63 65 66 66 69 74 72 71 73 69 62 59 57 52 46 50
59 61 63 64 66 69 68 65 66 67 68 73 76 71 70 69 64 60 58 51 44 46
66 65 62 63 67 70 69 66 68 68 66 70 76 69 67 68 66 61 57 49 45 44
71 72 70 69 70 69 69 69 68 70 68 67 72 68 62 66 66 62 55 47 44 44
77 78 79 77 78 79 73 71 68 69 70 69 68 66 60 64 65 61 53 46 42 41
80 82 84 84 82 83 78 73 69 69 69 66 63 58 56 61 63 61 52 45 41 38
83 82 85 87 84 85 81 69 68 68 66 60 55 48 51 58 61 57 50 46 38 34
Wind_Direction_850mb
280 289 295 298 302 304 300 295 290 289 294 298 301 303 305 307 309 311 312 312 311 307
291 292 292 290 290 292 294 290 287 284 285 288 291 295 299 301 305 307 309 309 307 301
317 312 306 299 295 290 287 287 286 284 282 282 284 287 291 295 299 303 303 304 303 300
308 307 306 306 306 303 295 291 285 283 282 281 280 281 284 289 294 298 300 299 298 299
309 302 298 299 302 304 304 303 300 289 282 279 278 279 281 285 289 293 296 294 291 292
312 313 305 295 293 296 300 302 301 299 292 283 278 275 277 279 282 286 290 287 286 289
308 309 310 308 304 297 294 297 298 296 291 288 280 274 273 275 277 281 285 283 284 286
308 306 306 308 305 306 299 294 292 293 290 285 279 272 269 270 272 276 280 280 283 291
308 308 306 303 304 304 304 299 295 293 292 286 279 272 266 266 268 272 277 278 283 291
318 313 308 302 298 300 303 300 297 296 294 287 280 271 263 262 264 267 272 271 284 288
319 316 313 308 304 300 300 296 296 297 297 287 278 268 259 257 259 263 267 266 282 287
318 314 313 309 305 303 299 292 293 294 295 289 274 264 254 250 256 260 262 262 278 283
314 311 309 306 302 298 295 288 288 289 292 287 274 263 245 246 253 257 256 259 274 280
309 308 308 303 299 297 290 284 282 285 288 281 268 253 240 246 251 255 253 257 270 277